Weather History for Phoenix-Mesa Gateway Airport, AZ

Change the Weather History Date:

Sunday, January 12, 2014

  Actual Average Record
Temperature  
Mean Temperature 52 °F -  
Max Temperature 66 °F 64 °F 77 °F (2004)
Min Temperature 39 °F 40 °F 26 °F (2013)
Degree Days  
Heating Degree Days 12    
Growing Degree Days 2 (Base 50)    
Moisture  
Dew Point 32 °F    
Average Humidity 58    
Maximum Humidity 70    
Minimum Humidity 26    
Precipitation  
Precipitation 0.00 in - - ()
Sea Level Pressure  
Sea Level Pressure 30.08 in    
Wind  
Wind Speed 6 mph (ESE)    
Max Wind Speed 10 mph    
Max Gust Speed -    
Visibility 12 miles    
Events      
Averages and records for this station are not official NWS values.
T = Trace of Precipitation, MM = Missing Value Source: NWS Daily Summary

Daily Weather History Graph

Daily Weather History Graph

Search for Another Location

Airport:

Trip Planner

Search our weather history database for the weather conditions in past years. The results will help you decide how hot, cold, wet, or windy it might be!

Date:

Astronomy

Jan. 12, 2014 Rise Set
Actual Time 7:30 AM MST 5:39 PM MST
Civil Twilight 7:03 AM MST 6:06 PM MST
Nautical Twilight 6:33 AM MST 6:37 PM MST
Astronomical Twilight 6:03 AM MST 7:06 PM MST
Moon 3:09 PM MST (1/12) 4:33 AM MST (1/12)
Length of Visible Light 11h 02m
Length of Day
10h 08m
Waxing Gibbous, 90% of the Moon is Illuminated
Jan 12
Waxing Gibbous
Jan 15
Full
Jan 23
Last Quarter
Jan 30
New
Feb 6
First Quarter

Hourly Weather History & Observations

Time (MST) Temp. Windchill Dew Point Humidity Pressure Visibility Wind Dir Wind Speed Gust Speed Precip Events Conditions
12:15 AM 42.8 °F 38.6 °F 32.0 °F 66% 30.03 in 10.0 mi East 6.9 mph - N/A   Clear
12:35 AM 42.8 °F 38.0 °F 32.0 °F 66% 30.02 in 10.0 mi ESE 8.1 mph - N/A   Clear
12:55 AM 42.8 °F 38.6 °F 32.0 °F 66% 30.01 in 10.0 mi ESE 6.9 mph - N/A   Clear
1:15 AM 42.8 °F 38.0 °F 32.0 °F 66% 30.01 in 10.0 mi ESE 8.1 mph - N/A   Clear
1:35 AM 42.8 °F 38.6 °F 32.0 °F 66% 30.01 in 10.0 mi ESE 6.9 mph - N/A   Clear
1:55 AM 42.8 °F 37.5 °F 32.0 °F 66% 30.01 in 10.0 mi ESE 9.2 mph - N/A   Clear
2:15 AM 42.8 °F 38.0 °F 32.0 °F 66% 30.01 in 10.0 mi ESE 8.1 mph - N/A   Clear
2:35 AM 42.8 °F 38.6 °F 32.0 °F 66% 30.02 in 10.0 mi East 6.9 mph - N/A   Clear
2:55 AM 42.8 °F 38.0 °F 32.0 °F 66% 30.02 in 10.0 mi East 8.1 mph - N/A   Clear
3:15 AM 41.0 °F 34.7 °F 32.0 °F 70% 30.02 in 10.0 mi East 10.4 mph - N/A   Clear
3:35 AM 42.8 °F 38.0 °F 32.0 °F 66% 30.01 in 10.0 mi East 8.1 mph - N/A   Clear
3:55 AM 42.8 °F 37.5 °F 32.0 °F 66% 30.01 in 10.0 mi East 9.2 mph - N/A   Clear
4:15 AM 42.8 °F 41.1 °F 32.0 °F 66% 30.02 in 10.0 mi East 3.5 mph - N/A   Clear
4:35 AM 42.8 °F 40.1 °F 32.0 °F 66% 30.02 in 10.0 mi ESE 4.6 mph - N/A   Clear
4:47 AM 42.8 °F 41.1 °F 30.2 °F 61% 30.02 in 20.0 mi ESE 3.5 mph - N/A   Mostly Cloudy
4:55 AM 41.0 °F 37.1 °F 30.2 °F 65% 30.02 in 10.0 mi East 5.8 mph - N/A   Clear
5:15 AM 41.0 °F 35.2 °F 32.0 °F 70% 30.01 in 10.0 mi East 9.2 mph - N/A   Clear
5:47 AM 41.0 °F 37.1 °F 30.2 °F 65% 30.00 in 20.0 mi ESE 5.8 mph - N/A   Mostly Cloudy
6:55 AM 39.2 °F 35.9 °F 30.2 °F 70% 30.05 in 20.0 mi South 4.6 mph - N/A   Scattered Clouds
7:47 AM 42.8 °F 40.1 °F 33.8 °F 70% 30.05 in 30.0 mi ESE 4.6 mph - N/A   Mostly Cloudy
8:47 AM 42.8 °F 38.6 °F 32.0 °F 66% 30.03 in 30.0 mi SE 6.9 mph - N/A   Mostly Cloudy
9:47 AM 48.2 °F - 33.8 °F 58% 30.09 in 35.0 mi ENE 3.5 mph - N/A   Mostly Cloudy
10:47 AM 55.4 °F - 32.0 °F 41% 30.10 in 35.0 mi SE 3.5 mph - N/A   Scattered Clouds
11:47 AM 57.2 °F - 33.8 °F 41% 30.08 in 30.0 mi SSE 4.6 mph - N/A   Partly Cloudy
12:47 PM 62.6 °F - 33.8 °F 34% 30.06 in 35.0 mi Calm Calm - N/A   Partly Cloudy
1:47 PM 64.4 °F - 32.0 °F 30% 30.03 in 35.0 mi SW 3.5 mph - N/A   Partly Cloudy
2:55 PM 64.4 °F - 30.2 °F 28% 30.03 in 35.0 mi West 4.6 mph - N/A   Scattered Clouds
3:47 PM 66.2 °F - 30.2 °F 26% 30.05 in 35.0 mi Calm Calm - N/A   Scattered Clouds
4:50 PM 62.6 °F - 32.0 °F 32% 30.06 in 35.0 mi Calm Calm - N/A   Mostly Cloudy
7:47 PM 53.6 °F - 33.8 °F 47% 30.11 in 20.0 mi Calm Calm - N/A   Scattered Clouds
7:55 PM 51.8 °F - 33.8 °F 50% 30.11 in 10.0 mi East 6.9 mph - N/A   Clear
8:15 PM 50.0 °F - 33.8 °F 54% 30.13 in 10.0 mi East 6.9 mph - N/A   Clear
8:35 PM 50.0 °F - 33.8 °F 54% 30.14 in 10.0 mi East 8.1 mph - N/A   Clear
8:50 PM 48.2 °F - 33.8 °F 58% 30.14 in 20.0 mi SE 4.6 mph - N/A   Scattered Clouds
8:55 PM 46.4 °F 42.9 °F 32.0 °F 57% 30.14 in 10.0 mi SE 6.9 mph - N/A   Clear
9:15 PM 46.4 °F 42.9 °F 32.0 °F 57% 30.15 in 10.0 mi East 6.9 mph - N/A   Clear
9:35 PM 46.4 °F 42.4 °F 32.0 °F 57% 30.15 in 10.0 mi SE 8.1 mph - N/A   Clear
9:47 PM 46.4 °F 42.4 °F 33.8 °F 62% 30.16 in 20.0 mi SE 8.1 mph - N/A   Scattered Clouds
9:55 PM 44.6 °F 40.7 °F 32.0 °F 61% 30.17 in 10.0 mi SE 6.9 mph - N/A   Clear
10:15 PM 44.6 °F 40.7 °F 32.0 °F 61% 30.18 in 10.0 mi SE 6.9 mph - N/A   Clear
10:35 PM 44.6 °F 40.2 °F 32.0 °F 61% 30.18 in 10.0 mi SE 8.1 mph - N/A   Clear
10:47 PM 46.4 °F 42.9 °F 33.8 °F 62% 30.18 in 20.0 mi SE 6.9 mph - N/A   Scattered Clouds
10:55 PM 44.6 °F 40.7 °F 32.0 °F 61% 30.18 in 10.0 mi SSE 6.9 mph - N/A   Clear
11:15 PM 42.8 °F 39.3 °F 32.0 °F 66% 30.19 in 10.0 mi ESE 5.8 mph - N/A   Clear
11:35 PM 42.8 °F 39.3 °F 32.0 °F 66% 30.21 in 10.0 mi ESE 5.8 mph - N/A   Clear
11:47 PM 44.6 °F 42.2 °F 32.0 °F 61% 30.21 in 20.0 mi East 4.6 mph - N/A   Scattered Clouds
11:55 PM 44.6 °F 41.4 °F 32.0 °F 61% 30.20 in 10.0 mi ESE 5.8 mph - N/A   Clear